Regional Weather Roundup
Issued by NWS Sterling, VA

Home | Current Version | Previous Version | Text Only | Print | Product List | Glossary On
Versions: 1 2 3 4 5 6 7 8 9 10 11 12 13 14 15 16 17 18 19 20 21 22 23 24 25 26 27
000
ASUS41 KLWX 232310
RWRLWX

REGIONAL WEATHER ROUNDUP
NATIONAL WEATHER SERVICE BALTIMORE MD/WASHINGTON DC
600 PM EST THU FEB 23 2017

Note: "FAIR" indicates few or no clouds below 12,000 feet
with no significant weather and/or obstructions to visibility.
 TC=TEMPERATURE CELSIUS

 * =Non NWS site. Station does not report precipitation (e.g. rain,
    snow, etc.), thunder, or fog.

DCZ001-MDZ009-015-VAZ040>042-051-053>054-240000-
WASHINGTON METRO

CITY           SKY/WX    TMP DP  RH WIND       PRES   REMARKS
WASHINGTON NAT FAIR      67  53  61 S10       29.83R
DULLES         MOCLDY    71  51  49 S10       29.83R
ANDREWS AFB    FAIR      70  52  53 S10       29.84R
FT BELVOIR     FAIR      72  52  49 VRB6      29.84R
QUANTICO       FAIR      59  51  75 SW8       29.85R
COLLEGE PARK*  FAIR      72  52  49 S3        29.84R
LEESBURG*      FAIR      72  54  53 MISG      29.83R
MANASSAS*        N/A     71  52  50 S8        29.84R
GAITHERSBURG*  FAIR      70  50  49 S10       29.87R

$$

MDZ006>007-011-014-240000-
BALTIMORE METRO

CITY           SKY/WX    TMP DP  RH WIND       PRES   REMARKS
BWI AIRPORT    MOCLDY    67  53  61 SE7       29.83R
MD SCIENCE CTR   N/A     68  51  54 MISG      29.84R
MARTIN STATE   PTCLDY    63  55  77 SE9       29.85R
ANNAPOLIS      FAIR      60  51  72 S12       29.85R
FORT MEADE*    FAIR      70  50  49 SE6       29.86R

$$

MDZ012-015-019>023-240000-
MARYLAND EASTERN SHORE

CITY           SKY/WX    TMP DP  RH WIND       PRES   REMARKS
OCEAN CITY     FAIR      57  51  80 SW7       29.91R
SALISBURY      FAIR      64  53  67 S8        29.89R
BAY BRIDGE AP* FAIR      63  52  67 S12       29.86R
CAMBRIDGE*     CLEAR     63  52  67 S10       29.88R
EASTON*        CLEAR     66  52  59 S7        29.90R

$$

MDZ017>025-240000-
SOUTHERN MARYLAND

CITY           SKY/WX    TMP DP  RH WIND       PRES   REMARKS
PATUXENT RIVER FAIR      57  51  80 SE6       29.87R
ST INIGOES     FAIR      63  52  67 SE8G18    29.87R
LEONARDTOWN*   NOT AVBL

$$

MDZ003>005-240000-
NORTH CENTRAL MARYLAND

CITY           SKY/WX    TMP DP  RH WIND       PRES   REMARKS
FREDERICK*     PTCLDY    72  52  49 S7        29.83R
HAGERSTOWN APT FAIR      73  51  46 S9        29.80R
WESTMINSTER*   FAIR      70  54  56 S8        29.83R

$$

MDZ501>502-240000-
WESTERN MARYLAND

CITY           SKY/WX    TMP DP  RH WIND       PRES   REMARKS
OAKLAND*       CLOUDY    57  50  77 W3        29.89R
CUMBERLAND*    CLOUDY    73  46  38 W7        29.84R

$$

VAZ025>031-240000-
SHENANDOAH VALLEY

CITY           SKY/WX    TMP DP  RH WIND       PRES   REMARKS
WINCHESTER*    FAIR      70  50  49 S7        29.82R
FRONT ROYAL*   CLOUDY    72  52  49 S5        29.81R
LURAY*         CLOUDY    70  54  56 S3        29.83R
NEW MARKET*    CLOUDY    69  48  47 S5        29.82R
STAUNTON*      FAIR      66  50  56 S6        29.88R
WAYNESBORO*    FAIR      67  49  53 S6        29.87R

$$

WVZ021-048>050-054>055-240000-
EASTERN WEST VIRGINIA PANHANDLE

CITY           SKY/WX    TMP DP  RH WIND       PRES   REMARKS
MARTINSBURG    FAIR      72  50  45 S6        29.80R
PETERSBURG*    CLOUDY    74  49  41 S3        29.82R

$$

VAZ036>039-050-240000-
CENTRAL FOOTHILLS

CITY           SKY/WX    TMP DP  RH WIND       PRES   REMARKS
CHARLOTTESVILL FAIR      71  52  50 S10       29.85R
CULPEPER*      FAIR      72  53  51 S6        29.85R
ORANGE*        FAIR      68  52  56 S7        29.86R
GORDONSVILLE*  FAIR      69  54  58 S6        29.85R
WARRENTON*     FAIR      72  47  41 S5        29.83R

$$

VAZ055>057-240000-
NORTH AND CENTRAL PIEDMONT

CITY           SKY/WX    TMP DP  RH WIND       PRES   REMARKS
FREDERICKSBRG* FAIR      73  54  51 S10       29.84R
STAFFORD*      FAIR      71  52  50 S6        29.89R

$$

NCZ024-NYZ072-PAZ021-071-VAZ022-071-240000-
OTHER REGIONAL OBSERVATIONS

CITY           SKY/WX    TMP DP  RH WIND       PRES   REMARKS
NEW YORK CITY  FAIR      61  51  70 S5        29.86R
PHILADELPHIA   FAIR      67  52  58 S8        29.84R
PITTSBURGH     CLOUDY    67  53  61 SW5       29.81R
ROANOKE        MOCLDY    69  50  50 S10       29.89R
RICHMOND       FAIR      66  52  60 S8        29.88R
RALEIGH        FAIR      70  48  45 S3        29.89R

$$

ANZ530>537-240000-
MARINE OBSERVATIONS

STATION/POSITION TIME  TEMP    WIND        PRES
                       AIR SEA DIR/SP/G
                 (UTC) (F)     (DEG/KT/KT) (MB)
THOMAS PT LIGHT  2300   54 44  170/ 12/ 12   N/A
BALT KEY BRIDGE  2248   62     170/ 11/ 11 1010.1R
COVE POINT       2248   52     190/ 16/ 17 1011.9R
LEWISETTA        2248   65 50  170/  7/  9 1011.2R
SOLOMONS ISLAND  2248   55 45  140/  9/ 12   N/A
PINEY POINT      2248          150/  7/  7   N/A

$$





USA.gov is the U.S. government's official web portal to all federal, state and local government web resources and services.